This is the latest recevied weather packets stored in our database for station/object SQ9NFI-4. If no packets are shown the sender has not sent any weather packets the latest 10 day(s).
| Time | Temp. | Humidity | Pressure | Rain* | Wind** | Luminosity | Snow |
|---|---|---|---|---|---|---|---|
| 1777876216 | 20.56° C | 34% | 1016.6 hPa | 0 mm | - | 348 W/m² | - |
| 1777875916 | 20.56° C | 35% | 1016.6 hPa | 0 mm | - | 336 W/m² | - |
| 1777875616 | 19.44° C | 34% | 1016.6 hPa | 0 mm | - | 320 W/m² | - |
| 1777875316 | 19.44° C | 34% | 1016.6 hPa | 0 mm | - | 306 W/m² | - |
| 1777875016 | 19.44° C | 35% | 1016.6 hPa | 0 mm | - | 293 W/m² | - |
| 1777874716 | 18.89° C | 37% | 1016.6 hPa | 0 mm | - | 277 W/m² | - |
| 1777874416 | 18.33° C | 36% | 1016.6 hPa | 0 mm | - | 264 W/m² | - |
| 1777874116 | 18.33° C | 37% | 1016.6 hPa | 0 mm | - | 250 W/m² | - |
| 1777873816 | 18.33° C | 38% | 1016.6 hPa | 0 mm | - | 245 W/m² | - |
| 1777873516 | 18.33° C | 40% | 1016.6 hPa | 0 mm | - | 235 W/m² | - |
| 1777873216 | 17.78° C | 43% | 1016.6 hPa | 0 mm | - | 213 W/m² | - |
| 1777872916 | 17.22° C | 43% | 1016.3 hPa | 0 mm | - | 191 W/m² | - |
| 1777872616 | 16.67° C | 46% | 1016.3 hPa | 0 mm | - | 166 W/m² | - |
| 1777872316 | 15.56° C | 49% | 1016.6 hPa | 0 mm | - | 149 W/m² | - |
| 1777872016 | 14.44° C | 59% | 1016.6 hPa | 0 mm | - | 129 W/m² | - |
| 1777871716 | 13.33° C | 63% | 1016.6 hPa | 0 mm | - | 114 W/m² | - |
| 1777871416 | 13.33° C | 64% | 1016.6 hPa | 0 mm | - | 103 W/m² | - |
| 1777871116 | 11.67° C | 65% | 1016.6 hPa | 0 mm | - | 92 W/m² | - |
| 1777870816 | 11.67° C | 70% | 1016.6 hPa | 0 mm | - | 82 W/m² | - |
| 1777870516 | 10.56° C | 71% | 1016.6 hPa | 0 mm | - | 73 W/m² | - |
| 1777870216 | 10° C | 72% | 1016.3 hPa | 0 mm | - | 64 W/m² | - |
| 1777869916 | 9.44° C | 73% | 1016.3 hPa | 0 mm | - | 58 W/m² | - |
| 1777869616 | 8.33° C | 79% | 1016.3 hPa | 0 mm | - | 52 W/m² | - |
| 1777869316 | 8.33° C | 80% | 1016.6 hPa | 0 mm | - | 48 W/m² | - |
| 1777869016 | 7.78° C | 80% | 1016.6 hPa | 0 mm | - | 43 W/m² | - |
* Rain latest hour (hover to see other rain measurements)
** Current wind speed in m/s (hover to see current wind gust speed)